TimeEDT,TemperatureF,Dew PointF,Humidity,Sea Level PressureIn,VisibilityMPH,Wind Direction,Wind SpeedMPH,Gust SpeedMPH,PrecipitationIn,Events,Conditions,WindDirDegrees,DateUTC
12:51 AM,66.0,64.9,96,29.99,0.8,North,6.9,-,N/A,,Overcast,360,2012-10-03 04:51:00
1:51 AM,66.0,64.9,96,29.99,0.5,North,6.9,-,0.00,,Mist,360,2012-10-03 05:51:00
2:51 AM,66.0,64.9,96,29.99,0.5,NNE,5.8,-,N/A,,Overcast,20,2012-10-03 06:51:00
3:51 AM,64.9,64.9,100,30.00,0.5,North,4.6,-,N/A,,Overcast,10,2012-10-03 07:51:00
4:10 AM,64.4,64.4,100,30.01,0.5,North,5.8,-,N/A,Fog,Fog,360,2012-10-03 08:10:00
4:48 AM,64.4,64.4,100,30.00,0.2,NNW,4.6,-,N/A,Fog,Fog,340,2012-10-03 08:48:00
4:51 AM,64.9,64.0,97,30.01,0.2,North,5.8,-,N/A,Fog,Fog,350,2012-10-03 08:51:00
5:33 AM,64.4,64.4,100,30.01,0.0,NE,3.5,-,N/A,Fog,Fog,40,2012-10-03 09:33:00
5:51 AM,64.9,64.9,100,30.01,0.0,NE,5.8,-,0.00,,Light Drizzle,50,2012-10-03 09:51:00
6:51 AM,66.0,64.9,96,30.04,0.0,North,3.5,-,0.00,,Overcast,10,2012-10-03 10:51:00
7:51 AM,66.0,64.9,96,30.06,0.5,NNE,6.9,-,N/A,,Overcast,20,2012-10-03 11:51:00
8:44 AM,66.2,66.2,100,30.06,2.0,East,3.5,-,N/A,,Overcast,80,2012-10-03 12:44:00
8:51 AM,66.9,64.9,93,30.07,2.0,Variable,4.6,-,N/A,,Overcast,0,2012-10-03 12:51:00
9:51 AM,69.1,66.9,93,30.06,2.0,NE,5.8,-,N/A,,Overcast,40,2012-10-03 13:51:00
10:37 AM,69.8,66.2,88,30.08,3.0,Calm,Calm,-,N/A,,Overcast,0,2012-10-03 14:37:00
10:51 AM,71.1,66.9,87,30.08,3.0,Calm,Calm,-,N/A,,Overcast,0,2012-10-03 14:51:00
11:51 AM,72.0,68.0,87,30.08,6.0,NE,4.6,-,N/A,,Overcast,40,2012-10-03 15:51:00
12:51 PM,73.0,69.1,87,30.07,4.0,South,6.9,-,N/A,,Overcast,190,2012-10-03 16:51:00
1:12 PM,73.4,68.0,83,30.06,4.0,South,4.6,-,N/A,,Haze,180,2012-10-03 17:12:00
1:26 PM,73.4,69.8,88,30.06,5.0,South,5.8,-,N/A,,Overcast,190,2012-10-03 17:26:00
1:51 PM,73.0,68.0,84,30.07,5.0,South,6.9,-,N/A,,Haze,180,2012-10-03 17:51:00
2:30 PM,71.6,68.0,88,30.07,5.0,SSE,5.8,-,N/A,,Overcast,160,2012-10-03 18:30:00
2:51 PM,71.1,68.0,90,30.06,5.0,South,5.8,-,N/A,,Overcast,170,2012-10-03 18:51:00
3:51 PM,71.1,68.0,90,30.07,5.0,South,4.6,-,N/A,,Overcast,190,2012-10-03 19:51:00
4:08 PM,71.6,68.0,88,30.07,2.0,South,3.5,-,N/A,,Overcast,190,2012-10-03 20:08:00
4:46 PM,69.8,68.0,94,30.07,1.0,Calm,Calm,-,N/A,,Overcast,0,2012-10-03 20:46:00
4:51 PM,70.0,68.0,93,30.08,1.0,SE,3.5,-,N/A,,Overcast,130,2012-10-03 20:51:00
5:08 PM,69.8,68.0,94,30.08,1.0,Calm,Calm,-,N/A,,Overcast,0,2012-10-03 21:08:00
5:51 PM,70.0,68.0,93,30.08,1.0,ESE,3.5,-,N/A,,Overcast,110,2012-10-03 21:51:00
6:51 PM,70.0,68.0,93,30.08,1.0,East,5.8,-,N/A,,Overcast,100,2012-10-03 22:51:00
7:51 PM,70.0,68.0,93,30.09,1.0,East,3.5,-,N/A,,Overcast,90,2012-10-03 23:51:00
8:51 PM,70.0,68.0,93,30.11,1.0,Calm,Calm,-,N/A,,Overcast,0,2012-10-04 00:51:00
9:11 PM,69.8,68.0,94,30.11,1.0,Calm,Calm,-,N/A,,Overcast,0,2012-10-04 01:11:00
9:45 PM,69.8,68.0,94,30.12,1.0,SSE,3.5,-,N/A,,Overcast,150,2012-10-04 01:45:00
9:51 PM,69.1,68.0,96,30.12,1.0,Calm,Calm,-,N/A,,Overcast,0,2012-10-04 01:51:00
10:51 PM,69.1,68.0,96,30.13,1.0,Calm,Calm,-,N/A,,Mist,0,2012-10-04 02:51:00
10:57 PM,69.8,68.0,94,30.12,0.5,Calm,Calm,-,N/A,Fog,Fog,0,2012-10-04 02:57:00
11:17 PM,69.8,68.0,94,30.12,0.5,Calm,Calm,-,N/A,Fog,Fog,0,2012-10-04 03:17:00
11:34 PM,69.8,68.0,94,30.12,0.5,Calm,Calm,-,N/A,Fog,Fog,0,2012-10-04 03:34:00
11:51 PM,69.1,68.0,96,30.13,0.0,Calm,Calm,-,N/A,Fog,Fog,0,2012-10-04 03:51:00